Flag for Romania Weather past 2 weeks in Bucharest, Romania

Now
66 °F

Sprinkles. Scattered clouds.


Feels Like: 66 °F
Forecast: 63 / 82 °F
Wind: 1 mph from North

Location: Bucharest / Imh

Current Time: Jul 4, 2015 at 8:59:06 AM

Latest Report: Jul 4, 2015 at 8:30 AM


Visibility: N/A

Pressure: 30.24 "Hg

Humidity: 88%

Dew point: 63 °F

Location of BucharestLocation

Historic Weather in Bucharest — Graph

°F

Bucharest temperature yesterday

Maximum temperature yesterday: 81 °F (at 4:30 PM)
Minimum temperature yesterday: 59 °F (at 4:00 AM)
Average temperature yesterday: 71 °F

Past Weeks' High & Low Weather Summary

 TemperatureHumidityPressure
High86 °F (Jun 24, 4:30 PM)100% (Jun 21, 4:30 PM)30.27 "Hg (Jun 21, 4:30 PM)
Low55 °F (Jun 21, 11:00 PM)27% (Jun 24, 6:30 PM)29.74 "Hg (Jun 19, 6:00 PM)
Average69 °F67%29.99 "Hg
* Reported Jun 19 7:30 AM — Jul 4 7:30 AM, Bucharest, Weather by CustomWeather, © 2015

Note: Actual official high and low records may vary slightly from our data, if they occured in-between our weather recording intervals... More about our weather records

Advertising

Bucharest weather history for previous 24 hours

 ConditionsComfort  
Time TempWeatherWind HumidityBarometerVisibility
7:30 AM
Sat, Jul 4
66 °FPassing clouds.3 mph88%30.24 "HgN/A
7:00 AM66 °FSunny.2 mph88%30.24 "Hg10 mi
6:30 AM64 °FClear.1 mph94%30.24 "Hg10 mi
6:00 AM64 °FClear.2 mph94%30.24 "Hg10 mi
5:30 AM64 °FPassing clouds.3 mph94%30.24 "HgN/A
5:00 AM63 °FPassing clouds.3 mph100%30.24 "HgN/A
4:30 AM63 °FPassing clouds.5 mph94%30.24 "HgN/A
4:00 AM63 °FPassing clouds.3 mph100%30.24 "HgN/A
3:30 AM64 °FPassing clouds.5 mph94%30.24 "HgN/A
3:00 AM64 °FPassing clouds.3 mph94%30.24 "HgN/A
2:30 AM64 °FPassing clouds.3 mph94%30.24 "HgN/A
2:00 AM64 °FPassing clouds.3 mph94%30.27 "HgN/A
1:30 AM64 °FPassing clouds.3 mph94%30.27 "HgN/A
1:00 AM64 °FPassing clouds.3 mph94%30.27 "HgN/A
12:30 AM66 °FPassing clouds.3 mph83%30.27 "HgN/A
12:00 AM68 °FSprinkles. Passing clouds.7 mph78%30.27 "HgN/A
11:30 PM
Fri, Jul 3
70 °FPassing clouds.6 mph64%30.27 "HgN/A
11:00 PM68 °FClear.3 mph69%30.27 "Hg10 mi
10:30 PM72 °FPassing clouds.5 mph61%30.27 "HgN/A
10:00 PM72 °FPassing clouds.3 mph61%30.24 "HgN/A
9:30 PM73 °FPassing clouds.3 mph57%30.24 "HgN/A
9:00 PM73 °FSunny.2 mph57%30.24 "Hg10 mi
8:30 PM73 °FPassing clouds.5 mph57%30.24 "HgN/A
8:00 PM75 °FPassing clouds.7 mph54%30.24 "HgN/A
7:30 PM77 °FPassing clouds.9 mph51%30.24 "HgN/A
7:00 PM77 °FPassing clouds.13 mph51%30.24 "HgN/A
6:30 PM79 °FPassing clouds.9 mph48%30.24 "HgN/A
6:00 PM79 °FPassing clouds.13 mph48%30.24 "HgN/A
5:30 PM77 °FScattered clouds.12 mph51%30.24 "HgN/A
5:00 PM77 °FScattered clouds.14 mph47%30.24 "HgN/A
4:30 PM81 °FScattered clouds.14 mph45%30.24 "HgN/A
4:00 PM77 °FScattered clouds.9 mph51%30.24 "HgN/A
3:30 PM79 °FPassing clouds.8 mph48%30.24 "HgN/A
3:00 PM77 °FPassing clouds.5 mph57%30.24 "HgN/A
2:30 PM73 °FPassing clouds.2 mph65%30.24 "HgN/A
2:00 PM75 °FLight rain. Scattered clouds.5 mph61%30.24 "HgN/A
1:30 PM75 °FPassing clouds.5 mph50%30.24 "HgN/A
1:00 PM75 °FLight rain. Passing clouds.9 mph54%30.24 "HgN/A
12:30 PM77 °FPassing clouds.5 mph51%30.24 "HgN/A
12:00 PM77 °FPassing clouds.7 mph51%30.24 "HgN/A
11:30 AM77 °FPassing clouds.8 mph51%30.24 "HgN/A
11:00 AM75 °FPassing clouds.5 mph50%30.24 "HgN/A
10:30 AM77 °FPassing clouds.8 mph47%30.24 "HgN/A
10:00 AM77 °FPassing clouds.8 mph47%30.24 "HgN/A
9:30 AM73 °FPassing clouds.7 mph53%30.24 "HgN/A
8:30 AM70 °FPassing clouds.6 mph64%30.21 "HgN/A
8:00 AM70 °FPassing clouds.6 mph64%30.21 "HgN/A
Weather by CustomWeather, © 2015

See weather overviewHow to use our weather pages